TELSTAR 18V

Last updated on Wed Nov 05 2025 00:02:49 GMT+0000 (Coordinated Universal Time)

1 43611U 18069A 25308.42051970 -.00000281 00000+0 00000+0 0 9995 2 43611 0.0196 270.4686 0002159 314.7420 108.1208 1.00271242 26371
UTC large
Height (km)
Speed (km/s)
/
Latitude / Longitude
Inclination (degrees)
Orbital Period (minutes)
Azimuth
Elevation
Range (km)
Doppler Factor

Next 0 passes for location: London (51.5072 / 0.1276)

Sorry there are no passes over London.